Regional Weather Roundup
Issued by NWS

Home | Current Version | Previous Version | Graphics & Text | Print | Product List | Glossary On
Versions: 1 2 3 4 5 6 7 8 9 10 11 12 13 14 15 16 17 18 19 20 21 22 23 24 25 26 27 28 29 30 31 32 33 34 35 36 37 38 39 40 41 42 43 44 45 46 47 48 49 50
145
ASUS43 KBIS 060702
RWRND

NORTH DAKOTA REGIONAL WEATHER ROUNDUP
NATIONAL WEATHER SERVICE BISMARCK ND
100 AM CST SAT FEB 06 2016

NOTE: "FAIR" INDICATES FEW OR NO CLOUDS BELOW 12,000 FEET WITH NO
SIGNIFICANT WEATHER AND/OR OBSTRUCTIONS TO VISIBILITY.


NDZ001>003-009>011-017-060800-
NORTHWEST NORTH DAKOTA

CITY           SKY/WX    TMP DP  RH WIND       PRES   REMARKS
WILLISTON      CLEAR     29  24  82 SW12      29.89F WCI  19
MINOT          CLOUDY    33  21  61 SW13      29.88F
MINOT AFB      CLOUDY    27  25  91 CALM      29.87F
$$

NDZ018>021-031>035-040>046-060800-
SOUTHWEST NORTH DAKOTA

CITY           SKY/WX    TMP DP  RH WIND       PRES   REMARKS
BISMARCK       CLOUDY    24  19  81 CALM      29.99F
DICKINSON      CLOUDY    31  21  66 SW17      29.94F WCI  19
GARRISON         N/A     22  19  89 S5        29.92F WCI  16
HETTINGER ARPT CLOUDY    25  18  74 W7        30.03F WCI  17
$$

NDZ004>008-012>016-024-026-027-054-060800-
NORTHEAST NORTH DAKOTA

CITY           SKY/WX    TMP DP  RH WIND       PRES   REMARKS
GRAND FORKS    CLOUDY    22  17  81 S8        30.01F WCI  12
GRND FRKS AFB  CLOUDY    22  17  83 S8        30.00F WCI  12
DEVILS LAKE    CLOUDY    23  20  88 S5        29.94F WCI  17
$$

NDZ022-023-025-028>030-036>039-047>053-060800-
SOUTHEAST NORTH DAKOTA

CITY           SKY/WX    TMP DP  RH WIND       PRES   REMARKS
FARGO          CLOUDY    21  17  84 S9        30.06F WCI  11
JAMESTOWN      PTCLDY    24  19  81 S7        29.98F WCI  16
$$





USA.gov is the U.S. government's official web portal to all federal, state and local government web resources and services.